Year,Month,Day,Hour,Minute,Value (Times are PST for temperature in C)
2020,02,01,00,00,10.40
2020,02,01,00,01,10.40
2020,02,01,00,02,10.40
2020,02,01,00,03,10.50
2020,02,01,00,04,10.60
2020,02,01,00,05,10.60
2020,02,01,00,06,10.60
2020,02,01,00,07,10.60
2020,02,01,00,08,10.60
2020,02,01,00,09,10.60
2020,02,01,00,10,10.60
2020,02,01,00,11,10.60
2020,02,01,00,12,10.60
2020,02,01,00,13,10.60
2020,02,01,00,14,10.60
2020,02,01,00,15,10.60
2020,02,01,00,16,10.60
2020,02,01,00,17,10.60
2020,02,01,00,18,10.70
2020,02,01,00,19,10.70
2020,02,01,00,20,10.70
2020,02,01,00,21,10.70
2020,02,01,00,22,10.70
2020,02,01,00,23,10.70
2020,02,01,00,24,10.70
2020,02,01,00,25,10.70
2020,02,01,00,26,10.70
2020,02,01,00,27,10.70
2020,02,01,00,28,10.80
2020,02,01,00,29,10.80
2020,02,01,00,30,10.80
2020,02,01,00,31,10.80
2020,02,01,00,32,10.80
2020,02,01,00,33,10.80
2020,02,01,00,34,10.80
2020,02,01,00,35,10.80
2020,02,01,00,36,10.80
2020,02,01,00,37,10.80
2020,02,01,00,38,10.80
2020,02,01,00,39,10.80
2020,02,01,00,40,10.90
2020,02,01,00,41,10.90
2020,02,01,00,42,10.90
2020,02,01,00,43,10.90
2020,02,01,00,44,10.90
2020,02,01,09,02,6.80
2020,02,01,09,03,6.80
2020,02,01,09,04,6.80
2020,02,01,09,05,6.80
2020,02,01,09,06,6.80
2020,02,01,09,07,6.80
2020,02,01,09,08,6.80
2020,02,01,09,09,6.80
2020,02,01,09,10,6.70
2020,02,01,09,11,6.60
2020,02,01,09,12,6.60
2020,02,01,09,13,6.60
2020,02,01,09,14,6.60
2020,02,01,09,15,6.60
2020,02,01,09,16,6.60
2020,02,01,09,17,6.60
2020,02,01,09,18,6.60
2020,02,01,09,19,6.60
2020,02,01,09,20,6.60
2020,02,01,09,21,6.60
2020,02,01,09,22,6.60
2020,02,01,09,23,6.60
2020,02,01,09,24,6.60
2020,02,01,09,25,6.60
2020,02,01,09,26,6.60
2020,02,01,09,27,6.60
2020,02,01,09,28,6.60
2020,02,01,09,29,6.60
2020,02,01,09,30,6.60
2020,02,01,09,31,6.60
2020,02,01,09,32,6.60
2020,02,01,09,33,6.60
2020,02,01,09,34,6.60
2020,02,01,09,35,6.60
2020,02,01,09,36,6.60
2020,02,01,09,37,6.60
2020,02,01,09,38,6.60
2020,02,01,09,39,6.60
2020,02,01,09,40,6.60
2020,02,01,09,41,6.60
2020,02,01,09,42,6.60
2020,02,01,09,43,6.60
2020,02,01,09,44,6.60
2020,02,01,09,45,6.60
2020,02,01,09,46,6.60
2020,02,01,09,47,6.60
2020,02,01,09,48,6.60
2020,02,01,09,49,6.60
2020,02,01,09,50,6.60
2020,02,01,09,51,6.60
2020,02,01,09,52,6.60
2020,02,01,09,53,6.70
2020,02,01,09,54,6.70
2020,02,01,09,55,6.70
2020,02,01,09,56,6.70
2020,02,01,09,57,6.80
2020,02,01,09,58,6.80
2020,02,01,09,59,6.80
2020,02,01,10,00,6.80
2020,02,01,10,01,6.80
2020,02,01,10,02,6.90
2020,02,01,10,03,6.90
2020,02,01,10,04,6.90
2020,02,01,10,05,6.90
2020,02,01,10,06,6.90
2020,02,01,10,07,6.90
2020,02,01,10,08,6.90
2020,02,01,10,09,6.90
2020,02,01,10,10,7.00
2020,02,01,10,11,7.00
2020,02,01,10,12,7.00
2020,02,01,10,13,6.90
2020,02,01,10,14,7.00
2020,02,01,10,15,7.00
2020,02,01,10,16,7.00
2020,02,01,10,17,6.90
2020,02,01,10,18,6.90
2020,02,01,10,19,6.90
2020,02,01,10,20,6.90
2020,02,01,10,21,6.90
2020,02,01,10,22,6.90
2020,02,01,10,23,6.90
2020,02,01,10,24,6.90
2020,02,01,10,25,6.80
2020,02,01,10,26,6.80
2020,02,01,10,27,6.80
2020,02,01,10,28,6.80
2020,02,01,10,29,6.80
2020,02,01,10,30,6.80
2020,02,01,10,31,6.80
2020,02,01,10,32,6.80
2020,02,01,10,33,6.80
2020,02,01,10,34,6.80
2020,02,01,10,35,6.80
2020,02,01,10,36,6.80
2020,02,01,10,37,6.80
2020,02,01,10,38,6.80
2020,02,01,10,39,6.70
2020,02,01,10,40,6.70
2020,02,01,10,41,6.70
2020,02,01,10,42,6.70
2020,02,01,10,43,6.80
2020,02,01,10,44,6.80
2020,02,01,10,45,6.80
2020,02,01,10,46,6.80
2020,02,01,10,47,6.80
2020,02,01,10,48,6.70
2020,02,01,10,49,6.80
2020,02,01,10,50,6.80
2020,02,01,10,51,6.80
2020,02,01,10,52,6.80
2020,02,01,10,53,6.80
2020,02,01,10,54,6.80
2020,02,01,10,55,6.90
2020,02,01,10,56,6.90
2020,02,01,10,57,6.90
2020,02,01,10,58,6.90
2020,02,01,10,59,6.90
2020,02,01,11,00,6.90
2020,02,01,11,01,6.90
2020,02,01,11,02,6.90
2020,02,01,11,03,6.90
2020,02,01,11,04,7.00
2020,02,01,11,05,7.00
2020,02,01,11,06,7.00
2020,02,01,11,07,7.00
2020,02,01,11,08,6.90
2020,02,01,11,09,7.00
2020,02,01,11,10,6.90
2020,02,01,11,11,6.90
2020,02,01,11,12,6.90
2020,02,01,11,13,6.90
2020,02,01,11,14,6.90
2020,02,01,11,15,6.80
2020,02,01,11,16,6.80
2020,02,01,11,17,6.80
2020,02,01,11,18,6.80
2020,02,01,11,19,6.90
2020,02,01,11,20,6.90
2020,02,01,11,21,6.80
2020,02,01,11,22,6.90
2020,02,01,11,23,7.00
2020,02,01,11,24,7.00
2020,02,01,11,25,7.00
2020,02,01,11,26,7.10
2020,02,01,11,27,7.20
2020,02,01,11,28,7.20
2020,02,01,11,29,7.20
2020,02,01,11,30,7.30
2020,02,01,11,31,7.30
2020,02,01,11,32,7.30
2020,02,01,11,33,7.30
2020,02,01,11,34,7.30
2020,02,01,11,35,7.40
2020,02,01,11,36,7.40
2020,02,01,11,37,7.50
2020,02,01,11,38,7.50
2020,02,01,11,39,7.40
2020,02,01,11,40,7.40
2020,02,01,11,41,7.40
2020,02,01,11,42,7.30
2020,02,01,11,43,7.40
2020,02,01,11,44,7.40
2020,02,01,11,45,7.30
2020,02,01,11,46,7.40
2020,02,01,11,47,7.40
2020,02,01,11,48,7.40
2020,02,01,11,49,7.40
2020,02,01,11,50,7.50
2020,02,01,11,51,7.50
2020,02,01,11,52,7.60
2020,02,01,11,53,7.60
2020,02,01,11,54,7.60
2020,02,01,11,55,7.60
2020,02,01,11,56,7.70
2020,02,01,11,57,7.70
2020,02,01,11,58,7.80
2020,02,01,11,59,7.80
2020,02,01,12,00,7.90
2020,02,01,12,01,7.90
2020,02,01,12,02,7.90
2020,02,01,12,03,7.90
2020,02,01,12,04,7.90
2020,02,01,12,05,7.90
2020,02,01,12,06,7.90
2020,02,01,12,07,8.00
2020,02,01,12,08,8.10
2020,02,01,12,09,8.10
2020,02,01,12,10,8.10
2020,02,01,12,11,8.20
2020,02,01,12,12,8.20
2020,02,01,12,13,8.20
2020,02,01,12,14,8.30
2020,02,01,12,15,8.30
2020,02,01,12,16,8.30
2020,02,01,12,17,8.20
2020,02,01,12,18,8.20
2020,02,01,12,19,8.00
2020,02,01,12,20,8.00
2020,02,01,12,21,7.90
2020,02,01,12,22,7.90
2020,02,01,12,23,7.80
2020,02,01,12,24,7.70
2020,02,01,12,25,7.60
2020,02,01,12,26,7.50
2020,02,01,12,27,7.50
2020,02,01,12,28,7.50
2020,02,01,12,29,7.50
2020,02,01,12,30,7.50
2020,02,01,12,31,7.50
2020,02,01,12,32,7.40
2020,02,01,12,33,7.40
2020,02,01,12,34,7.40
2020,02,01,12,35,7.40
2020,02,01,12,36,7.30
2020,02,01,12,37,7.30
2020,02,01,12,38,7.30
2020,02,01,12,39,7.30
2020,02,01,12,40,7.30
2020,02,01,12,41,7.30
2020,02,01,12,42,7.30
2020,02,01,12,43,7.30
2020,02,01,12,44,7.30
2020,02,01,12,45,7.20
2020,02,01,12,46,7.20
2020,02,01,12,47,7.10
2020,02,01,12,48,7.20
2020,02,01,12,49,7.10
2020,02,01,12,50,7.00
2020,02,01,12,51,7.00
2020,02,01,12,52,7.00
2020,02,01,12,53,6.90
2020,02,01,12,54,7.00
2020,02,01,12,55,6.90
2020,02,01,12,56,7.00
2020,02,01,12,57,6.90
2020,02,01,12,58,6.90
2020,02,01,12,59,6.90
2020,02,01,13,00,6.90
2020,02,01,13,01,6.90
2020,02,01,13,02,6.90
2020,02,01,13,03,6.90
2020,02,01,13,04,6.90
2020,02,01,13,05,6.80
2020,02,01,13,06,6.80
2020,02,01,13,07,6.70
2020,02,01,13,08,6.70
2020,02,01,13,09,6.70
2020,02,01,13,10,6.70
2020,02,01,13,11,6.70
2020,02,01,13,12,6.60
2020,02,01,13,13,6.60
2020,02,01,13,14,6.60
2020,02,01,13,15,6.60
2020,02,01,13,16,6.60
2020,02,01,13,17,6.70
2020,02,01,13,18,6.70
2020,02,01,13,19,6.70
2020,02,01,13,20,6.80
2020,02,01,13,21,6.80
2020,02,01,13,22,6.90
2020,02,01,13,23,7.00
2020,02,01,13,24,7.00
2020,02,01,13,25,7.10
2020,02,01,13,26,7.10
2020,02,01,13,27,7.00
2020,02,01,13,28,7.00
2020,02,01,13,29,7.00
2020,02,01,13,30,7.00
2020,02,01,13,31,6.90
2020,02,01,13,32,6.90
2020,02,01,13,33,6.90
2020,02,01,13,34,6.90
2020,02,01,13,35,6.90
2020,02,01,13,36,6.90
2020,02,01,13,37,6.90
2020,02,01,13,38,6.90
2020,02,01,13,39,6.90
2020,02,01,13,40,6.90
2020,02,01,13,41,7.00
2020,02,01,13,42,7.00
2020,02,01,13,43,7.10
2020,02,01,13,44,7.10
2020,02,01,13,45,7.10
2020,02,01,13,46,7.10
2020,02,01,13,47,7.10
2020,02,01,13,48,7.10
2020,02,01,13,49,7.10
2020,02,01,13,50,7.10
2020,02,01,13,51,7.10
2020,02,01,13,52,7.20
2020,02,01,13,53,7.10
2020,02,01,13,54,7.00
2020,02,01,13,55,7.00
2020,02,01,13,56,7.00
2020,02,01,13,57,7.00
2020,02,01,13,58,7.00
2020,02,01,13,59,6.90
2020,02,01,14,00,6.90
2020,02,01,14,01,6.90
2020,02,01,14,02,6.80
2020,02,01,14,03,6.80
2020,02,01,14,04,6.80
2020,02,01,14,05,6.80
2020,02,01,14,06,6.80
2020,02,01,14,07,6.80
2020,02,01,14,08,6.80
2020,02,01,14,09,6.70
2020,02,01,14,10,6.70
2020,02,01,14,11,6.70
2020,02,01,14,12,6.70
2020,02,01,14,13,6.60
2020,02,01,14,14,6.60
2020,02,01,14,15,6.60
2020,02,01,14,16,6.60
2020,02,01,14,17,6.60
2020,02,01,14,18,6.50
2020,02,01,14,19,6.40
2020,02,01,14,20,6.40
2020,02,01,14,21,6.40
2020,02,01,14,22,6.40
2020,02,01,14,23,6.40
2020,02,01,14,24,6.40
2020,02,01,14,25,6.40
2020,02,01,14,26,6.40
2020,02,01,14,27,6.40
2020,02,01,14,28,6.40
2020,02,01,14,29,6.30
2020,02,01,14,30,6.30
2020,02,01,14,31,6.30
2020,02,01,14,32,6.30
2020,02,01,14,33,6.30
2020,02,01,14,34,6.20
2020,02,01,14,35,6.20
2020,02,01,14,36,6.20
2020,02,01,14,37,6.20
2020,02,01,14,38,6.20
2020,02,01,14,39,6.20
2020,02,01,14,40,6.20
2020,02,01,14,41,6.20
2020,02,01,14,42,6.20
2020,02,01,14,43,6.20
2020,02,01,14,44,6.10
2020,02,01,14,45,6.10
2020,02,01,14,46,6.10
2020,02,01,14,47,6.10
2020,02,01,14,48,6.10
2020,02,01,14,49,6.00
2020,02,01,14,50,6.00
2020,02,01,14,51,6.10
2020,02,01,14,52,6.10
2020,02,01,14,53,6.10
2020,02,01,14,54,6.10
2020,02,01,14,55,6.10
2020,02,01,14,56,6.10
2020,02,01,14,57,6.10
2020,02,01,14,58,6.10
2020,02,01,14,59,6.10
2020,02,01,15,00,6.00
2020,02,01,15,01,6.00
2020,02,01,15,02,6.00
2020,02,01,15,03,6.00
2020,02,01,15,04,5.90
2020,02,01,15,05,5.90
2020,02,01,15,06,5.90
2020,02,01,15,07,5.80
2020,02,01,15,08,5.80
2020,02,01,15,09,5.80
2020,02,01,15,10,5.80
2020,02,01,15,11,5.80
2020,02,01,15,12,5.80
2020,02,01,15,13,5.70
2020,02,01,15,14,5.70
2020,02,01,15,15,5.70
2020,02,01,15,16,5.70
2020,02,01,15,17,5.70
2020,02,01,15,18,5.70
2020,02,01,15,19,5.60
2020,02,01,15,20,5.60
2020,02,01,15,21,5.60
2020,02,01,15,22,5.60
2020,02,01,15,23,5.50
2020,02,01,15,24,5.50
2020,02,01,15,25,5.40
2020,02,01,15,26,5.40
2020,02,01,15,27,5.40
2020,02,01,15,28,5.40
2020,02,01,15,29,5.40
2020,02,01,15,30,5.40
2020,02,01,15,31,5.40
2020,02,01,15,32,5.40
2020,02,01,15,33,5.40
2020,02,01,15,34,5.40
2020,02,01,15,35,5.30
2020,02,01,15,36,5.30
2020,02,01,15,37,5.30
2020,02,01,15,38,5.30
2020,02,01,15,39,5.30
2020,02,01,15,40,5.30
2020,02,01,15,41,5.30
2020,02,01,15,42,5.30
2020,02,01,15,43,5.30
2020,02,01,15,44,5.30
2020,02,01,15,45,5.20
2020,02,01,15,46,5.20
2020,02,01,15,47,5.20
2020,02,01,15,48,5.10
2020,02,01,15,49,5.10
2020,02,01,15,50,5.10
2020,02,01,15,51,5.10
2020,02,01,15,52,5.10
2020,02,01,15,53,5.10
2020,02,01,15,54,5.10
2020,02,01,15,55,5.00
2020,02,01,15,56,4.90
2020,02,01,15,57,4.90
2020,02,01,15,58,4.90
2020,02,01,15,59,4.90
2020,02,01,16,00,4.90
2020,02,01,16,01,4.90
2020,02,01,16,02,4.90
2020,02,01,16,03,4.90
2020,02,01,16,04,4.90
2020,02,01,16,05,4.90
2020,02,01,16,06,4.80
2020,02,01,16,07,4.80
2020,02,01,16,08,4.80
2020,02,01,16,09,4.80
2020,02,01,16,10,4.80
2020,02,01,16,11,4.80
2020,02,01,16,12,4.80
2020,02,01,16,13,4.80
2020,02,01,16,14,4.80
2020,02,01,16,15,4.80
2020,02,01,16,16,4.70
2020,02,01,16,17,4.70
2020,02,01,16,18,4.70
2020,02,01,16,19,4.70
2020,02,01,16,20,4.60
2020,02,01,16,21,4.60
2020,02,01,16,22,4.60
2020,02,01,16,23,4.60
2020,02,01,16,24,4.60
2020,02,01,16,25,4.60
2020,02,01,16,26,4.60
2020,02,01,16,27,4.60
2020,02,01,16,28,4.60
2020,02,01,16,29,4.60
2020,02,01,16,30,4.50
2020,02,01,16,31,4.50
2020,02,01,16,32,4.50
2020,02,01,16,33,4.50
2020,02,01,16,34,4.50
2020,02,01,16,35,4.50
2020,02,01,16,36,4.50
2020,02,01,16,37,4.50
2020,02,01,16,38,4.40
2020,02,01,16,39,4.40
2020,02,01,16,40,4.40
2020,02,01,16,41,4.30
2020,02,01,16,42,4.30
2020,02,01,16,43,4.30
2020,02,01,16,44,4.20
2020,02,01,16,45,4.20
2020,02,01,16,46,4.20
2020,02,01,16,47,4.20
2020,02,01,16,48,4.20
2020,02,01,16,49,4.10
2020,02,01,16,50,4.10
2020,02,01,16,51,4.00
2020,02,01,16,52,4.00
2020,02,01,16,53,4.00
2020,02,01,16,54,3.90
2020,02,01,16,55,3.90
2020,02,01,16,56,3.80
2020,02,01,16,57,3.90
2020,02,01,16,58,3.90
2020,02,01,16,59,3.90
2020,02,01,17,00,3.90
2020,02,01,17,01,3.90
2020,02,01,17,02,3.90
2020,02,01,17,03,3.90
2020,02,01,17,04,3.90
2020,02,01,17,05,4.00
2020,02,01,17,06,4.00
2020,02,01,17,07,4.10
2020,02,01,17,08,4.00
2020,02,01,17,09,4.00
2020,02,01,17,10,4.00
2020,02,01,17,11,4.00
2020,02,01,17,12,4.00
2020,02,01,17,13,4.00
2020,02,01,17,14,3.90
2020,02,01,17,15,3.90
2020,02,01,17,16,3.80
2020,02,01,17,17,3.80
2020,02,01,17,18,3.80
2020,02,01,17,19,3.70
2020,02,01,17,20,3.80
2020,02,01,17,21,3.70
2020,02,01,17,22,3.70
2020,02,01,17,23,3.70
2020,02,01,17,24,3.70
2020,02,01,17,25,3.70
2020,02,01,17,26,3.70
2020,02,01,17,27,3.60
2020,02,01,17,28,3.60
2020,02,01,17,29,3.50
2020,02,01,17,30,3.50
2020,02,01,17,31,3.50
2020,02,01,17,32,3.50
2020,02,01,17,33,3.40
2020,02,01,17,34,3.40
2020,02,01,17,35,3.30
2020,02,01,17,36,3.30
2020,02,01,17,37,3.30
2020,02,01,17,38,3.40
2020,02,01,17,39,3.40
2020,02,01,17,40,3.40
2020,02,01,17,41,3.40
2020,02,01,17,42,3.50
2020,02,01,17,43,3.50
2020,02,01,17,44,3.50
2020,02,01,17,45,3.50
2020,02,01,17,46,3.50
2020,02,01,17,47,3.50
2020,02,01,17,48,3.50
2020,02,01,17,49,3.50
2020,02,01,17,50,3.50
2020,02,01,17,51,3.40
2020,02,01,17,52,3.40
2020,02,01,17,53,3.30
2020,02,01,17,54,3.30
2020,02,01,17,55,3.20
2020,02,01,17,56,3.20
2020,02,01,17,57,3.10
2020,02,01,17,58,3.10
2020,02,01,17,59,3.00
2020,02,01,18,00,2.90
2020,02,01,18,01,2.90
2020,02,01,18,02,2.90
2020,02,01,18,03,2.80
2020,02,01,18,04,2.80
2020,02,01,18,05,2.70
2020,02,01,18,06,2.70
2020,02,01,18,07,2.80
2020,02,01,18,08,2.80
2020,02,01,18,09,2.80
2020,02,01,18,10,2.70
2020,02,01,18,11,2.70
2020,02,01,18,12,2.70
2020,02,01,18,13,2.70
2020,02,01,18,14,2.70
2020,02,01,18,15,2.70
2020,02,01,18,16,2.70
2020,02,01,18,17,2.70
2020,02,01,18,18,2.70
2020,02,01,18,19,2.80
2020,02,01,18,20,2.80
2020,02,01,18,21,2.80
2020,02,01,18,22,2.80
2020,02,01,18,23,2.80
2020,02,01,18,24,2.80
2020,02,01,18,25,2.70
2020,02,01,18,26,2.70
2020,02,01,18,27,2.70
2020,02,01,18,28,2.70
2020,02,01,18,29,2.70
2020,02,01,18,30,2.70
2020,02,01,18,31,2.70
2020,02,01,18,32,2.70
2020,02,01,18,33,2.70
2020,02,01,18,34,2.60
2020,02,01,18,35,2.60
2020,02,01,18,36,2.60
2020,02,01,18,37,2.50
2020,02,01,18,38,2.50
2020,02,01,18,39,2.50
2020,02,01,18,40,2.40
2020,02,01,18,41,2.40
2020,02,01,18,42,2.30
2020,02,01,18,43,2.30
2020,02,01,18,44,2.20
2020,02,01,18,45,2.20
2020,02,01,18,46,2.20
2020,02,01,18,47,2.20
2020,02,01,18,48,2.20
2020,02,01,18,49,2.20
2020,02,01,18,50,2.10
2020,02,01,18,51,2.10
2020,02,01,18,52,2.10
2020,02,01,18,53,2.10
2020,02,01,18,54,2.10
2020,02,01,18,55,2.10
2020,02,01,18,56,2.20
2020,02,01,18,57,2.10
2020,02,01,18,58,2.10
2020,02,01,18,59,2.10
2020,02,01,19,00,2.10
2020,02,01,19,01,2.10
2020,02,01,19,02,2.10
2020,02,01,19,03,2.10
2020,02,01,19,04,2.10
2020,02,01,19,05,2.00
2020,02,01,19,06,2.00
2020,02,01,19,07,2.00
2020,02,01,19,08,1.90
2020,02,01,19,09,1.90
2020,02,01,19,10,1.90
2020,02,01,19,11,1.90
2020,02,01,19,12,1.90
2020,02,01,19,13,1.90
2020,02,01,19,14,1.90
2020,02,01,19,15,1.90
2020,02,01,19,16,1.90
2020,02,01,19,17,1.90
2020,02,01,19,18,1.80
2020,02,01,19,19,1.80
2020,02,01,19,20,1.80
2020,02,01,19,21,1.80
2020,02,01,19,22,1.80
2020,02,01,19,23,1.80
2020,02,01,19,24,1.80
2020,02,01,19,25,1.80
2020,02,01,19,26,1.80
2020,02,01,19,27,1.80
2020,02,01,19,28,1.70
2020,02,01,19,29,1.70
2020,02,01,19,30,1.70
2020,02,01,19,31,1.70
2020,02,01,19,32,1.80
2020,02,01,19,33,1.80
2020,02,01,19,34,1.80
2020,02,01,19,35,1.80
2020,02,01,19,36,1.80
2020,02,01,19,37,1.80
2020,02,01,19,38,1.80
2020,02,01,19,39,1.80
2020,02,01,19,40,1.80
2020,02,01,19,41,1.80
2020,02,01,19,42,1.80
2020,02,01,19,43,1.80
2020,02,01,19,44,1.70
2020,02,01,19,45,1.70
2020,02,01,19,46,1.70
2020,02,01,19,47,1.70
2020,02,01,19,48,1.70
2020,02,01,19,49,1.60
2020,02,01,19,50,1.60
2020,02,01,19,51,1.60
2020,02,01,19,52,1.50
2020,02,01,19,53,1.50
2020,02,01,19,54,1.50
2020,02,01,19,55,1.50
2020,02,01,19,56,1.50
2020,02,01,19,57,1.50
2020,02,01,19,58,1.50
2020,02,01,19,59,1.50
2020,02,01,20,00,1.50
2020,02,01,20,01,1.60
2020,02,01,20,02,1.60
2020,02,01,20,03,1.60
2020,02,01,20,04,1.60
2020,02,01,20,05,1.60
2020,02,01,20,06,1.70
2020,02,01,20,07,1.80
2020,02,01,20,08,1.80
2020,02,01,20,09,1.80
2020,02,01,20,10,1.80
2020,02,01,20,11,1.80
2020,02,01,20,12,1.80
2020,02,01,20,13,1.80
2020,02,01,20,14,1.80
2020,02,01,20,15,1.80
2020,02,01,20,16,1.80
2020,02,01,20,17,1.80
2020,02,01,20,18,1.80
2020,02,01,20,19,1.80
2020,02,01,20,20,1.80
2020,02,01,20,21,1.80
2020,02,01,20,22,1.90
2020,02,01,20,23,1.90
2020,02,01,20,24,1.90
2020,02,01,20,25,2.00
2020,02,01,20,26,2.00
2020,02,01,20,27,2.00
2020,02,01,20,28,2.00
2020,02,01,20,29,1.90
2020,02,01,20,30,1.90
2020,02,01,20,31,1.90
2020,02,01,20,32,1.90
2020,02,01,20,33,1.90
2020,02,01,20,34,1.80
2020,02,01,20,35,1.80
2020,02,01,20,36,1.80
2020,02,01,20,37,1.80
2020,02,01,20,38,1.80
2020,02,01,20,39,1.80
2020,02,01,20,40,1.70
2020,02,01,20,41,1.70
2020,02,01,20,42,1.70
2020,02,01,20,43,1.70
2020,02,01,20,44,1.70
2020,02,01,20,45,1.70
2020,02,01,20,46,1.70
2020,02,01,20,47,1.70
2020,02,01,20,48,1.80
2020,02,01,20,49,2.00
2020,02,01,20,50,2.00
2020,02,01,20,51,2.10
2020,02,01,20,52,2.20
2020,02,01,20,53,2.20
2020,02,01,20,54,2.20
2020,02,01,20,55,2.30
2020,02,01,20,56,2.40
2020,02,01,20,57,2.50
2020,02,01,20,58,2.50
2020,02,01,20,59,2.50
2020,02,01,21,00,2.50
2020,02,01,21,01,2.50
2020,02,01,21,02,2.50
2020,02,01,21,03,2.50
2020,02,01,21,04,2.40
2020,02,01,21,05,2.40
2020,02,01,21,06,2.40
2020,02,01,21,07,2.30
2020,02,01,21,08,2.20
2020,02,01,21,09,2.20
2020,02,01,21,10,2.20
2020,02,01,21,11,2.10
2020,02,01,21,12,2.10
2020,02,01,21,13,2.00
2020,02,01,21,14,2.00
2020,02,01,21,15,1.90
2020,02,01,21,16,1.90
2020,02,01,21,17,1.90
2020,02,01,21,18,1.90
2020,02,01,21,19,2.00
2020,02,01,21,20,2.00
2020,02,01,21,21,2.10
2020,02,01,21,22,2.10
2020,02,01,21,23,2.10
2020,02,01,21,24,2.10
2020,02,01,21,25,2.10
2020,02,01,21,26,2.00
2020,02,01,21,27,2.00
2020,02,01,21,28,1.90
2020,02,01,21,29,1.90
2020,02,01,21,30,1.90
2020,02,01,21,31,1.90
2020,02,01,21,32,1.80
2020,02,01,21,33,1.80
2020,02,01,21,34,1.80
2020,02,01,21,35,1.80
2020,02,01,21,36,1.80
2020,02,01,21,37,1.80
2020,02,01,21,38,1.80
2020,02,01,21,39,1.80
2020,02,01,21,40,1.70
2020,02,01,21,41,1.70
2020,02,01,21,42,1.70
2020,02,01,21,43,1.70
2020,02,01,21,44,1.70
2020,02,01,21,45,1.70
2020,02,01,21,46,1.60
2020,02,01,21,47,1.60
2020,02,01,21,48,1.60
2020,02,01,21,49,1.60
2020,02,01,21,50,1.60
2020,02,01,21,51,1.60
2020,02,01,21,52,1.50
2020,02,01,21,53,1.50
2020,02,01,21,54,1.50
2020,02,01,21,55,1.50
2020,02,01,21,56,1.50
2020,02,01,21,57,1.50
2020,02,01,21,58,1.50
2020,02,01,21,59,1.40
2020,02,01,22,00,1.40
2020,02,01,22,01,1.40
2020,02,01,22,02,1.40
2020,02,01,22,03,1.40
2020,02,01,22,04,1.30
2020,02,01,22,05,1.30
2020,02,01,22,06,1.30
2020,02,01,22,07,1.30
2020,02,01,22,08,1.30
2020,02,01,22,09,1.30
2020,02,01,22,10,1.20
2020,02,01,22,11,1.20
2020,02,01,22,12,1.20
2020,02,01,22,13,1.20
2020,02,01,22,14,1.20
2020,02,01,22,15,1.20
2020,02,01,22,16,1.10
2020,02,01,22,17,1.10
2020,02,01,22,18,1.10
2020,02,01,22,19,1.10
2020,02,01,22,20,1.10
2020,02,01,22,21,1.10
2020,02,01,22,22,1.10
2020,02,01,22,23,1.10
2020,02,01,22,24,1.10
2020,02,01,22,25,1.10
2020,02,01,22,26,1.20
2020,02,01,22,27,1.20
2020,02,01,22,28,1.10
2020,02,01,22,29,1.10
2020,02,01,22,30,1.10
2020,02,01,22,31,1.10
2020,02,01,22,32,1.10
2020,02,01,22,33,1.10
2020,02,01,22,34,1.00
2020,02,01,22,35,1.00
2020,02,01,22,36,1.00
2020,02,01,22,37,1.00
2020,02,01,22,38,0.90
2020,02,01,22,39,0.90
2020,02,01,22,40,0.90
2020,02,01,22,41,0.90
2020,02,01,22,42,0.90
2020,02,01,22,43,0.90
2020,02,01,22,44,0.90
2020,02,01,22,45,0.90
2020,02,01,22,46,0.90
2020,02,01,22,47,0.90
2020,02,01,22,48,0.90
2020,02,01,22,49,0.90
2020,02,01,22,50,0.90
2020,02,01,22,51,0.90
2020,02,01,22,52,0.80
2020,02,01,22,53,0.80
2020,02,01,22,54,0.80
2020,02,01,22,55,0.80
2020,02,01,22,56,0.80
2020,02,01,22,57,0.80
2020,02,01,22,58,0.90
2020,02,01,22,59,0.90
2020,02,01,23,00,0.90
2020,02,01,23,01,0.90
2020,02,01,23,02,0.90
2020,02,01,23,03,0.90
2020,02,01,23,04,0.90
2020,02,01,23,05,0.90
2020,02,01,23,06,0.90
2020,02,01,23,07,0.90
2020,02,01,23,08,1.00
2020,02,01,23,09,0.90
2020,02,01,23,10,1.00
2020,02,01,23,11,1.00
2020,02,01,23,12,1.00
2020,02,01,23,13,1.00
2020,02,01,23,14,1.00
2020,02,01,23,15,1.00
2020,02,01,23,16,1.00
2020,02,01,23,17,1.00
2020,02,01,23,18,1.00
2020,02,01,23,19,1.00
2020,02,01,23,20,1.00
2020,02,01,23,21,1.00
2020,02,01,23,22,1.00
2020,02,01,23,23,1.00
2020,02,01,23,24,1.00
2020,02,01,23,25,1.00
2020,02,01,23,26,1.00
2020,02,01,23,27,1.00
2020,02,01,23,28,1.00
2020,02,01,23,29,1.00
2020,02,01,23,30,1.00
2020,02,01,23,31,1.00
2020,02,01,23,32,1.00
2020,02,01,23,33,1.00
2020,02,01,23,34,1.00
2020,02,01,23,35,1.00
2020,02,01,23,36,1.00
2020,02,01,23,37,1.00
2020,02,01,23,38,1.00
2020,02,01,23,39,1.00
2020,02,01,23,40,1.00
2020,02,01,23,41,1.00
2020,02,01,23,42,1.00
2020,02,01,23,43,1.00
2020,02,01,23,44,1.00
2020,02,01,23,45,1.00
2020,02,01,23,46,1.00
2020,02,01,23,47,1.00
2020,02,01,23,48,1.00
2020,02,01,23,49,1.00
2020,02,01,23,50,1.00
2020,02,01,23,51,1.00
2020,02,01,23,52,1.00
2020,02,01,23,53,1.00
2020,02,01,23,54,1.00
2020,02,01,23,55,1.00
2020,02,01,23,56,1.00
2020,02,01,23,57,0.90
2020,02,01,23,58,0.90
2020,02,01,23,59,0.90
